JR2LGW-13 Weather Reports


time (UTC)temp
F
wind
direction
speed
knots
gust
knots
rain 1hr
in
rain 24hr
in
rain mn
in
humidity
%
barometer
mb
20260505040946 71 125 5.2 11.3 0.00 0.00 0.00 48 1021.5
20260505040046 71 134 5.2 11.3 0.00 0.00 0.00 49 1021.6
20260505035148 71 139 4.3 11.3 0.00 0.00 0.00 50 1021.5
20260505034248 71 146 4.3 13.0 0.00 0.00 0.00 50 1021.6
20260505033346 71 141 4.3 11.3 0.00 0.00 0.00 46 1021.5
20260505032446 71 136 4.3 11.3 0.00 0.00 0.00 48 1021.5
20260505031547 70 132 4.3 10.4 0.00 0.00 0.00 46 1021.2
20260505030647 71 146 3.5 10.4 0.00 0.00 0.00 49 1021.3
20260505025746 70 150 4.3 9.6 0.00 0.00 0.00 49 1021.3
20260505024846 70 136 4.3 13.0 0.00 0.00 0.00 49 1021.3
20260505023946 70 137 4.3 11.3 0.00 0.00 0.00 47 1021.2
20260505023046 70 143 4.3 11.3 0.00 0.00 0.00 46 1021.2
20260505022147 69 141 4.3 11.3 0.00 0.00 0.00 46 1021.2
20260505021248 69 155 4.3 11.3 0.00 0.00 0.00 46 1021.1
20260505020346 69 136 5.2 11.3 0.00 0.00 0.00 51 1021.0
20260505015446 69 128 5.2 10.4 0.00 0.00 0.00 50 1021.0
20260505014546 69 123 5.2 8.7 0.00 0.00 0.00 48 1020.8
20260505013647 69 129 5.2 9.6 0.00 0.00 0.00 49 1020.8
20260505012746 70 123 5.2 9.6 0.00 0.00 0.00 52 1021.0
20260505005147 70 123 4.3 8.7 0.00 0.00 0.00 49 1021.0
20260505004248 70 130 3.5 8.7 0.00 0.00 0.00 48 1021.0
20260505003346 70 128 2.6 7.8 0.00 0.00 0.00 49 1020.9
20260505002447 69 151 1.7 7.0 0.00 0.00 0.00 49 1020.9
20260505001546 68 133 2.6 7.8 0.00 0.00 0.00 48 1020.8
20260504235746 68 107 2.6 7.0 0.00 0.00 0.00 48 1020.5
20260504234846 67 102 1.7 6.1 0.00 0.00 0.00 50 1020.4
20260504233946 64 55 1.7 4.3 0.00 0.00 0.00 54 1020.3
20260504233046 63 338 3.5 7.0 0.00 0.00 0.00 55 1020.3
20260504231246 62 343 3.5 6.1 0.00 0.00 0.00 54 1020.3
20260504225449 60 346 3.5 4.3 0.00 0.00 0.00 55 1020.0
20260504224547 60 346 3.5 6.1 0.00 0.00 0.00 56 1019.9
20260504222748 59 359 2.6 4.3 0.00 0.00 0.00 58 1019.8
20260504220947 58 341 3.5 7.0 0.00 0.00 0.00 59 1019.4
20260504220046 57 332 2.6 4.3 0.00 0.00 0.00 59 1019.0
20260504215148 57 330 3.5 5.2 0.00 0.00 0.00 60 1018.8
20260504214247 56 332 2.6 5.2 0.00 0.00 0.00 61 1018.6
20260504213347 56 332 1.7 3.5 0.00 0.00 0.00 61 1018.4
20260504212446 55 314 3.5 7.0 0.00 0.00 0.00 64 1018.4
20260504211547 54 307 2.6 7.0 0.00 0.00 0.00 65 1018.2
20260504205746 54 322 3.5 7.0 0.00 0.00 0.00 66 1017.8
20260504204846 54 326 3.5 7.0 0.00 0.00 0.00 65 1017.7
20260504202146 53 317 3.5 5.2 0.00 0.01 0.00 65 1017.0
20260504201248 53 318 4.3 7.8 0.00 0.01 0.00 65 1016.7
20260504195446 54 327 6.1 10.4 0.00 0.02 0.00 63 1016.3
20260504192748 54 319 5.2 11.3 0.00 0.08 0.00 64 1016.0
20260504191848 54 318 6.1 11.3 0.00 0.09 0.00 64 1015.7
20260504190948 54 318 8.7 13.0 0.00 0.09 0.00 64 1015.5
20260504190047 55 319 9.6 14.8 0.00 0.10 0.00 64 1015.4
20260504185147 55 318 8.7 17.4 0.00 0.15 0.00 64 1015.0
20260504184246 55 309 8.7 14.8 0.00 0.20 0.00 64 1014.9
20260504183346 55 307 7.8 14.8 0.00 0.24 0.00 64 1014.6
20260504182446 55 304 7.0 13.9 0.00 0.24 0.00 63 1014.6
20260504181546 55 312 7.0 13.9 0.00 0.24 0.00 63 1014.7
20260504180646 56 315 7.0 10.4 0.00 0.24 0.00 63 1014.6
20260504175746 56 316 7.0 14.8 0.00 0.24 0.00 62 1014.4
20260504174846 56 325 7.0 13.0 0.00 0.24 0.00 62 1014.4
20260504173948 56 319 7.8 14.8 0.00 0.24 0.00 61 1014.5
20260504173046 56 313 7.8 13.9 0.00 0.24 0.00 61 1014.4
20260504172147 56 320 8.7 17.4 0.00 0.24 0.00 61 1014.1
20260504171247 57 313 10.4 18.2 0.00 0.24 0.00 62 1013.8
20260504150646 58 318 9.6 15.6 0.00 0.40 0.00 62 1012.8
20260504141246 58 326 10.4 17.4 0.00 0.99 0.43 60 1012.4
20260504140346 58 320 8.7 13.9 0.00 1.09 0.43 60 1012.5